KT5AL Weather Reports


Display with metric or nautical units.
time (UTC)temp
F
wind
direction
speed
MPH
gust
MPH
rain 1hr
in
rain 24hr
in
rain mn
in
humidity
%
barometer
mb
20260901140005 86 135 8.0 9.0 0.00 0.00 0.00 61 1014.8
20260901135507 85 180 4.0 5.0 0.00 0.00 0.00 62 1014.8
20260901134502 85 157 5.0 6.0 0.00 0.00 0.00 63 1015.1
20260901133510 83 157 4.0 6.0 0.00 0.00 0.00 67 1015.1
20260901133004 83 157 4.0 4.0 0.00 0.00 0.00 67 1015.1
20260901132506 82 157 3.0 4.0 0.00 0.00 0.00 70 1015.8
20260901132008 81 157 4.0 5.0 0.00 0.00 0.00 71 1015.8
20260901131503 80 157 3.0 5.0 0.00 0.00 0.00 72 1015.8
20260901130003 79 135 4.0 5.0 0.00 0.00 0.00 73 1016.5
20260901125505 79 157 3.0 3.0 0.00 0.00 0.00 74 1016.5
20260901124503 78 157 4.0 6.0 0.00 0.00 0.00 74 1016.5
20260901124004 78 157 2.0 3.0 0.00 0.00 0.00 74 1016.5
20260901123507 78 157 4.0 6.0 0.00 0.00 0.00 75 1016.5
20260901122504 77 135 2.0 2.0 0.00 0.00 0.00 75 1016.5
20260901121508 77 135 3.0 4.0 0.00 0.00 0.00 74 1016.5
20260901121031 77 135 4.0 5.0 0.00 0.00 0.00 74 1016.5
20260901115502 78 135 2.0 3.0 0.00 0.00 0.00 73 1016.1
20260901114007 78 225 2.0 3.0 0.00 0.00 0.00 72 1016.1
20260901113005 78 225 5.0 5.0 0.00 0.00 0.00 71 1015.8
20260901112507 78 247 3.0 4.0 0.00 0.00 0.00 71 1015.8
20260901110508 79 225 7.0 8.0 0.00 0.00 0.00 69 1015.8
20260901110004 79 225 5.0 5.0 0.00 0.00 0.00 69 1015.8
20260901105506 78 202 4.0 5.0 0.00 0.00 0.00 69 1015.8
20260901105008 78 202 1.0 3.0 0.00 0.00 0.00 67 1015.8
20260901101004 79 157 2.0 3.0 0.00 0.00 0.00 65 1015.4
20260901095504 80 157 3.0 3.0 0.00 0.00 0.00 65 1015.4
20260901094508 80 157 4.0 5.0 0.00 0.00 0.00 64 1015.4
20260901093505 80 157 4.0 5.0 0.00 0.00 0.00 64 1015.8
20260901093007 80 157 3.0 4.0 0.00 0.00 0.00 63 1015.8
20260901091003 80 135 4.0 5.0 0.00 0.00 0.00 62 1015.4
20260901090006 80 157 5.0 6.0 0.00 0.00 0.00 63 1015.4
20260901085005 79 157 4.0 6.0 0.00 0.00 0.00 62 1015.4
20260901083006 80 157 4.0 6.0 0.00 0.00 0.00 62 1015.4
20260901082502 80 157 5.0 6.0 0.00 0.00 0.00 62 1015.1
20260901082004 80 135 5.0 6.0 0.00 0.00 0.00 62 1015.1
20260901081002 80 112 6.0 7.0 0.00 0.00 0.00 61 1015.1
20260901075507 80 135 4.0 5.0 0.00 0.00 0.00 60 1015.1
20260901075003 80 157 4.0 6.0 0.00 0.00 0.00 59 1015.1
20260901074505 80 157 4.0 5.0 0.00 0.00 0.00 59 1014.8
20260901074007 80 135 4.0 5.0 0.00 0.00 0.00 57 1014.8
20260901071504 81 135 5.0 8.0 0.00 0.00 0.00 57 1014.8
20260901070502 81 112 3.0 4.0 0.00 0.00 0.00 55 1015.1
20260901065029 81 67 4.0 5.0 0.00 0.00 0.00 52 1014.8
20260901064502 81 45 4.0 4.0 0.00 0.00 0.00 52 1014.8
20260901062505 81 45 4.0 5.0 0.00 0.00 0.00 52 1014.8
20260901061005 81 45 4.0 5.0 0.00 0.00 0.00 52 1015.1
20260901060507 80 360 4.0 4.0 0.00 0.00 0.00 53 1014.8
20260901054537 81 247 0.0 0.0 0.00 0.00 0.00 51 1014.4
20260901050008 82 157 1.0 2.0 0.00 0.00 0.00 47 1013.8
20260901042504 82 157 2.0 4.0 0.00 0.00 0.00 47 1013.4
20260901041005 83 157 0.0 0.0 0.00 0.00 0.00 46 1013.8
20260901040507 83 157 1.0 2.0 0.00 0.00 0.00 45 1013.4
20260901034005 84 157 3.0 4.0 0.00 0.00 0.00 44 1013.4
20260901033003 85 157 3.0 4.0 0.00 0.00 0.00 43 1013.1
20260901032006 85 157 3.0 4.0 0.00 0.00 0.00 44 1013.1
20260901030507 85 180 3.0 4.0 0.00 0.00 0.00 44 1013.1
20260901030003 85 180 2.0 3.0 0.00 0.00 0.00 43 1013.1
20260901025007 85 180 2.0 3.0 0.00 0.00 0.00 42 1012.7
20260901023506 86 180 4.0 4.0 0.00 0.00 0.00 42 1012.4
20260901023002 86 180 3.0 4.0 0.00 0.00 0.00 41 1012.4
20260901022504 87 157 3.0 4.0 0.00 0.00 0.00 41 1012.1
20260901021005 88 135 4.0 4.0 0.00 0.00 0.00 38 1011.7
20260901015505 89 135 5.0 6.0 0.00 0.00 0.00 38 1011.7
20260901012006 90 135 4.0 6.0 0.00 0.00 0.00 35 1010.7
20260901011508 91 135 5.0 7.0 0.00 0.00 0.00 35 1010.4
20260901011004 91 135 4.0 6.0 0.00 0.00 0.00 34 1010.4
20260901010007 92 157 4.0 5.0 0.00 0.00 0.00 33 1010.4
20260901005005 93 157 5.0 8.0 0.00 0.00 0.00 32 1010.4
20260831235005 95 157 10.0 14.0 0.00 0.00 0.00 30 1009.7
20260831234507 95 157 9.0 11.0 0.00 0.00 0.00 31 1009.0
20260831233504 96 112 11.0 15.0 0.00 0.00 0.00 31 1009.0
20260831232508 97 157 10.0 15.0 0.00 0.00 0.00 30 1009.0
20260831231506 97 157 13.0 18.0 0.00 0.00 0.00 29 1009.0
20260831225004 96 157 11.0 13.0 0.00 0.00 0.00 30 1009.4
20260831224506 97 157 12.0 16.0 0.00 0.00 0.00 30 1009.0
20260831224008 97 157 11.0 14.0 0.00 0.00 0.00 30 1009.0
20260831223503 97 180 10.0 14.0 0.00 0.00 0.00 29 1009.0
20260831222003 99 157 11.0 13.0 0.00 0.00 0.00 28 1008.7
20260831220503 98 202 12.0 15.0 0.00 0.00 0.00 29 1009.0
20260831215003 98 180 13.0 16.0 0.00 0.00 0.00 28 1009.0
20260831214506 98 112 8.0 10.0 0.00 0.00 0.00 28 1009.0
20260831212006 97 135 10.0 15.0 0.00 0.00 0.00 30 1009.7
20260831211502 98 157 13.0 18.0 0.00 0.00 0.00 29 1009.0
20260831210003 98 157 6.0 8.0 0.00 0.00 0.00 29 1009.4
20260831205506 97 112 8.0 11.0 0.00 0.00 0.00 30 1009.7
20260831204005 99 180 11.0 13.0 0.00 0.00 0.00 27 1009.7
20260831201502 98 157 9.0 12.0 0.00 0.00 0.00 28 1010.0
20260831200008 96 90 7.0 9.0 0.00 0.00 0.00 31 1010.4
20260831195504 96 135 15.0 19.0 0.00 0.00 0.00 32 1011.0
20260831193505 95 90 13.0 17.0 0.00 0.00 0.00 33 1011.0
20260831193007 97 180 14.0 20.0 0.00 0.00 0.00 32 1011.0
20260831190504 95 112 8.0 14.0 0.00 0.00 0.00 31 1011.0
20260831190006 96 135 11.0 18.0 0.00 0.00 0.00 32 1011.0
20260831185502 96 135 12.0 17.0 0.00 0.00 0.00 32 1011.4
20260831185004 95 180 9.0 12.0 0.00 0.00 0.00 33 1011.4
20260831183503 96 157 6.0 7.0 0.00 0.00 0.00 34 1011.7
20260831183005 95 157 6.0 7.0 0.00 0.00 0.00 32 1011.7
20260831182003 95 180 14.0 19.0 0.00 0.00 0.00 35 1012.1
20260831181505 95 180 9.0 14.0 0.00 0.00 0.00 35 1012.1
20260831181006 95 135 10.0 14.0 0.00 0.00 0.00 33 1012.1
20260831180502 95 157 12.0 16.0 0.00 0.00 0.00 35 1012.4
20260831174504 95 180 16.0 19.0 0.00 0.00 0.00 34 1012.4
20260831171503 94 202 18.0 23.0 0.00 0.00 0.00 33 1013.1
20260831165505 93 202 13.0 15.0 0.00 0.00 0.00 35 1013.1
20260831164508 93 180 12.0 13.0 0.00 0.00 0.00 37 1013.1
20260831163504 92 180 13.0 16.0 0.00 0.00 0.00 39 1013.4
20260831162508 92 180 13.0 17.0 0.00 0.00 0.00 39 1013.4
20260831162003 92 157 14.0 17.0 0.00 0.00 0.00 40 1013.4
20260831161505 91 180 15.0 18.0 0.00 0.00 0.00 39 1013.4
20260831161007 92 180 15.0 19.0 0.00 0.00 0.00 39 1013.4
20260831160503 91 202 12.0 16.0 0.00 0.00 0.00 39 1013.8
20260831155002 91 180 11.0 13.0 0.00 0.00 0.00 40 1013.8
20260831154006 90 202 15.0 18.0 0.00 0.00 0.00 40 1013.8
20260831153507 90 202 12.0 14.0 0.00 0.00 0.00 42 1013.8
20260831153004 90 202 10.0 13.0 0.00 0.00 0.00 42 1013.8
20260831152505 90 202 11.0 14.0 0.00 0.00 0.00 44 1013.8
20260831151005 89 180 11.0 14.0 0.00 0.00 0.00 46 1014.1
20260831150507 88 202 8.0 12.0 0.00 0.00 0.00 48 1014.1
20260831150003 88 225 10.0 13.0 0.00 0.00 0.00 49 1014.1
20260831145505 88 202 12.0 15.0 0.00 0.00 0.00 47 1014.4